Location: George Washington National Forest Helicopter Landing Site
(38.6463°N, 79.0851°W)
Time: 05:26:20
(UTC-04:00)

Tiros 1 despin weight - Pass Details

Date: 19 August 2019
Orbit: 593 x 643 km, 48.2° (Epoch: 21 October)

Event Time Altitude Azimuth Distance (km) Brightness Sun altitude
Rises 05:21:54 0° 297° (WNW) 2,875 - -13.7°
Exits shadow 05:22:37 - 300° (WNW) 2,623 ? -13.6°
Reaches altitude 10° 05:24:32 10° 311° (NW) 1,979 ? -13.3°
Maximum altitude 05:28:20 25° 7° (N) 1,248 ? -12.6°
Drops below altitude 10° 05:32:12 10° 64° (ENE) 2,004 ? -11.9°
Sets 05:34:52 0° 77° (ENE) 2,920 ? -11.5°
